{"data":{"norad_id":64771,"epoch":"2026-05-24T23:37:13.287648Z","epoch_age_seconds":86614,"freshness":"FRESH","line1":"1 64771U 25147S   26144.98418157  .00019608  00000+0  58996-3 0  9997","line2":"2 64771  53.1575 247.6000 0001072  76.6004 283.5118 15.34398313 50378","mean_motion":15.34398313,"eccentricity":0.0001072,"inclination_deg":53.1575,"raan_deg":247.6,"arg_perigee_deg":76.6004,"mean_anomaly_deg":283.5118,"bstar":0.00058996,"rev_number":5037,"period_min":93.847861262606,"perigee_km":461.97491571995,"apogee_km":463.44159294248,"semimajor_km":6840.8452543312,"source":"CELESTRAK","updated_at":"2026-05-25T13:38:20.557636Z"}}